CAPE
0 0 0 0 0 0 0 0 0 9 21 0 25 58 444 334 273 175 157 35 0 11 19 70 96 95 92 136 31 0 0 0 50 57 0 0 0 65 234 267 376 330 501 968
0 0 0 0 0 0 0 0 0 0 42 15 3 13 383 366 279 215 210 117 28 20 29 62 94 106 105 85 59 13 0 0 18 0 0 0 40 168 307 461 477 433 542 1006
0 0 0 0 0 0 0 0 0 0 33 61 18 19 143 292 289 232 166 81 49 50 39 57 59 85 57 40 35 29 11 0 0 0 0 0 27 230 66 202 441 493 440 740
0 0 0 0 0 0 0 0 0 0 6 37 35 4 19 252 242 229 193 141 69 79 63 49 43 47 58 36 32 34 0 0 0 0 0 26 65 210 136 0 302 364 303 582
0 0 0 0 0 0 0 0 0 0 0 45 54 23 0 133 159 273 268 269 161 85 77 74 50 35 99 20 15 37 68 1 0 0 0 15 50 107 42 0 0 319 292 408
0 0 0 0 0 0 0 0 0 0 0 5 5 22 0 34 219 283 286 277 252 158 89 88 65 35 7 14 3 0 3 89 15 0 0 0 5 33 8 0 0 57 306 385
0 0 0 0 0 0 0 0 0 0 0 0 0 24 0 0 223 261 256 270 264 312 125 113 82 68 44 0 0 0 15 23 41 20 0 0 11 9 15 0 0 0 183 381
0 0 0 0 0 0 0 0 0 0 0 0 0 0 0 0 0 276 304 264 227 265 276 163 127 120 90 84 55 0 0 0 12 49 20 0 74 0 0 0 0 0 64 327
0 0 0 0 0 0 0 0 0 0 0 0 0 0 0 0 0 0 144 218 211 266 283 262 252 214 196 161 180 174 79 42 63 27 36 32 65 95 5 0 10 24 76 261
0 0 0 0 0 0 0 0 0 0 0 0 0 0 0 0 0 0 0 48 144 205 249 244 224 246 232 240 238 203 265 195 152 136 76 106 115 121 77 39 10 45 125 368
0 0 0 0 0 0 0 0 0 0 0 0 0 0 0 0 0 0 0 23 84 122 121 116 130 161 184 158 206 224 231 288 245 220 165 130 168 126 117 120 58 65 120 155
1 0 0 0 0 0 0 0 0 0 0 0 0 0 0 0 0 0 0 2 70 95 95 76 66 108 170 182 180 207 207 244 293 298 279 213 244 266 267 264 183 176 241 259
0 0 0 0 0 0 0 0 0 0 0 0 0 0 0 0 0 0 0 0 0 68 95 80 74 56 131 170 175 176 204 236 236 283 290 258 331 430 445 450 353 342 372 400
63 12 0 0 0 0 0 1 1 0 0 0 0 0 0 0 0 0 0 0 0 6 46 66 77 106 172 216 220 218 258 248 246 397 431 417 482 583 679 682 641 552 569 582
0 0 0 0 0 0 0 0 3 0 1 0 0 0 0 0 0 0 0 0 0 0 2 38 70 122 178 237 270 374 358 308 274 357 612 602 606 636 697 905 1136 868 770 728
24 0 0 0 0 0 0 0 0 0 0 0 0 0 0 0 0 0 0 1 0 0 0 7 88 160 172 211 318 388 578 520 428 405 671 758 773 749 710 633 684 1189 1122 1069
8 0 0 0 8 0 0 0 0 0 0 0 0 0 0 0 114 55 20 57 132 0 0 0 57 184 188 246 305 373 652 809 765 681 796 993 1069 1116 1050 931 778 779 1011 1252
2 0 0 0 18 0 0 0 0 0 0 0 0 0 83 25 358 271 133 71 238 191 0 0 91 199 199 273 349 343 723 1184 1148 1069 1100 1235 1295 1299 1308 1288 1192 1114 1099 1103
0 0 1 0 13 0 20 4 3 9 3 0 12 271 660 466 198 371 614 361 835 924 0 15 104 217 228 276 380 425 854 1386 1479 1447 1442 1454 1452 1371 1369 1462 1506 1458 1419 1359
0 0 8 37 56 5 1 3 1 0 4 5 60 328 425 261 161 362 1252 1005 746 837 638 14 120 270 363 415 457 575 822 1211 1599 1647 1669 1697 1693 1653 1563 1544 1599 1747 1829 1856
0 6 11 79 33 48 5 1 1 30 0 14 64 187 256 34 118 1140 1468 1183 1033 1182 1191 528 572 593 594 592 609 647 814 983 1148 1482 1761 1835 1901 1927 1943 1935 1913 1910 2053 2155
13 64 73 82 47 75 67 18 8 0 8 28 133 238 203 251 1112 1358 1531 1627 1338 1062 1020 1152 1116 998 908 884 878 879 870 914 969 1229 1610 1885 1995 2128 2201 2225 2322 2404 2364 2405
3 11 26 55 56 25 91 45 12 1 39 80 221 290 244 397 1011 1249 1728 1724 1859 1613 1672 1662 1432 1428 1432 1410 1438 1588 1940 2000 1309 1301 1390 1483 1926 2157 2374 2493 2512 2553 2623 2684
0 0 72 18 13 126 112 99 19 40 33 108 172 302 425 450 440 507 979 1521 2006 1743 1705 1657 1815 1892 1901 1845 2001 2218 2505 2217 1828 1816 1797 1826 1998 2051 2238 2426 2641 2771 2732 2740
0 0 0 5 28 79 96 88 52 74 114 148 167 299 336 470 371 267 417 754 1123 1413 1764 1609 1533 1511 1644 1895 2059 2178 2425 2586 2536 2768 2812 2275 2287 2315 2347 2340 2346 2446 2656 2776
0 0 0 86 36 52 56 34 72 62 65 172 223 323 360 343 392 274 228 335 368 702 1123 1174 1118 1102 1107 1107 1161 1276 1310 1406 1705 2424 2785 3362 3096 2479 2372 2424 2423 2552 2591 2645
CIN
0 0 0 0 0 0 0 0 0 -8 -14 -1 -46 -49 -202 -208 -171 -143 -68 -124 0 -195 -344 -216 -158 -141 -119 -109 -185 -1 0 0 -154 -149 0 0 0 -83 -82 -51 -79 -95 -177 -112
0 0 0 0 0 0 0 0 0 0 -2 -10 -24 -43 -185 -209 -216 -151 -85 -75 -343 -321 -330 -247 -188 -163 -151 -158 -193 -198 0 0 -130 0 0 0 -156 -52 -55 -43 -39 -58 -171 -43
0 0 0 0 0 0 0 0 0 0 -2 0 -8 -13 -177 -190 -189 -163 -132 -70 -286 -302 -319 -261 -212 -212 -180 -206 -225 -201 -161 0 0 0 0 0 -103 -35 -69 -60 -39 -40 -183 -52
0 0 0 0 0 0 0 0 0 0 -50 -1 -3 -14 -167 -216 -246 -226 -196 -114 -239 -315 -290 -277 -242 -202 -215 -264 -224 -202 0 0 0 0 0 -149 -136 -73 -88 0 -39 -38 -119 -146
0 0 0 0 0 0 0 0 0 0 0 -34 -3 -1 0 -215 -199 -250 -264 -184 -168 -335 -321 -315 -297 -248 -202 -162 -261 -203 -158 -6 0 0 0 -201 -150 -78 -86 0 0 -33 -39 -188
0 0 0 0 0 0 0 0 0 0 0 -21 -5 -1 0 -50 -241 -313 -288 -263 -214 -178 -333 -316 -292 -227 -55 -100 -30 0 -39 -187 -100 0 0 0 -182 -133 -149 0 0 -147 -59 -209
0 0 0 0 0 0 0 0 0 0 0 0 0 -13 0 0 -201 -256 -314 -333 -340 -205 -362 -309 -303 -278 -184 0 0 0 -226 -260 -248 -213 0 0 -239 -201 -170 0 0 0 -126 -123
0 0 0 0 0 0 0 0 0 0 0 0 0 0 0 0 0 -217 -253 -292 -263 -257 -219 -344 -300 -245 -148 -133 -121 0 0 0 -243 -241 -222 0 -118 0 0 0 0 0 -261 -150
0 0 0 0 0 0 0 0 0 0 0 0 0 0 0 0 0 0 -259 -269 -248 -260 -208 -291 -243 -238 -199 -161 -139 -147 -135 -139 -149 -195 -164 -165 -146 -147 -100 0 -294 -263 -198 -120
0 0 0 0 0 0 0 0 0 0 0 0 0 0 0 0 0 0 -14 -334 -303 -269 -243 -212 -273 -261 -248 -202 -154 -139 -104 -112 -126 -131 -160 -156 -167 -147 -126 -127 -189 -234 -163 -97
0 0 0 0 0 0 0 0 0 0 0 0 0 0 0 0 0 0 0 -380 -342 -327 -296 -269 -267 -384 -315 -257 -169 -170 -131 -110 -113 -93 -134 -146 -132 -165 -414 -169 -101 -184 -127 -291
0 0 0 0 0 0 0 0 0 0 0 0 0 0 0 0 0 0 0 -144 -403 -352 -304 -272 -223 -419 -354 -315 -255 -189 -152 -146 -130 -106 -103 -137 -386 -365 -359 -350 -265 -181 -135 -113
0 0 0 0 0 0 0 0 0 0 0 0 0 0 0 0 0 0 0 0 0 -378 -357 -289 -268 -423 -382 -388 -347 -280 -176 -126 -109 -204 -133 -166 -370 -323 -327 -314 -282 -196 -149 -142
0 0 0 0 0 0 0 0 0 0 0 0 0 0 0 0 0 0 0 0 0 -388 -344 -326 -349 -451 -420 -364 -344 -279 -207 -113 -118 -396 -380 -380 -370 -337 -286 -280 -288 -221 -167 -162
-2 0 -1 0 0 0 0 0 -1 0 -1 0 0 0 0 0 0 0 0 0 0 0 -166 -431 -409 -454 -448 -379 -315 -642 -499 -158 -170 -470 -385 -388 -386 -343 -316 -257 -225 -246 -181 -191
-4 0 0 0 0 0 0 0 0 0 0 0 0 0 0 0 -4 -8 0 -9 -5 0 0 -204 -452 -415 -381 -422 -330 -693 -639 -565 -524 -508 -436 -372 -352 -351 -369 -331 -316 -261 -250 -213
-9 0 0 0 -4 -1 -1 0 0 0 0 0 0 0 0 0 -339 -471 -581 -611 -730 -38 0 0 -500 -410 -357 -335 -386 -672 -684 -572 -502 -486 -425 -365 -332 -323 -342 -344 -316 -278 -338 -288
-2 0 0 0 -2 0 0 0 0 0 0 0 0 0 -285 -168 -257 -335 -465 -612 -658 -798 0 0 -522 -448 -383 -362 -420 -294 -660 -573 -512 -482 -442 -391 -358 -342 -316 -303 -337 -304 -292 -311
0 0 -4 0 -2 0 -19 -1 -2 -2 -3 0 -93 -118 -113 -192 -295 -259 -310 -507 -496 -592 0 -540 -460 -423 -379 -437 -454 -691 -669 -574 -510 -494 -483 -455 -430 -396 -378 -360 -354 -348 -349 -349
0 -1 -10 -3 -2 0 -18 -4 -38 -1 -74 -89 -220 -92 -112 -154 -261 -283 -176 -318 -535 -638 -860 -241 -520 -458 -445 -434 -421 -756 -687 -614 -572 -554 -532 -464 -429 -427 -456 -435 -407 -357 -336 -342
0 -83 -36 -3 -4 -4 -10 -6 -28 -13 -15 -52 -183 -144 -94 -145 -244 -76 -107 -254 -439 -558 -658 -463 -460 -376 -356 -367 -353 -578 -595 -623 -685 -567 -513 -476 -451 -450 -418 -375 -365 -370 -330 -294
-22 -5 -2 -1 -12 -4 -6 -10 -16 -1 -17 -67 -123 -108 -84 -104 -15 -29 -67 -133 -303 -509 -564 -615 -691 -791 -307 -276 -230 -221 -209 -444 -219 -530 -559 -522 -477 -429 -393 -378 -342 -316 -302 -280
-8 -28 -8 -2 -9 -12 0 -14 -34 0 -36 -55 -26 -57 -71 -40 -1 -3 -9 -46 -115 -253 -304 -350 -263 -177 -201 -149 -585 -549 -521 -555 -128 -137 -100 -363 -479 -473 -421 -393 -352 -310 -288 -278
0 0 -6 -9 -16 -1 -2 -1 -21 -35 -50 -44 -35 -36 -23 -15 -13 -32 -28 -16 -24 -98 -162 -217 -257 -298 -327 -362 -350 -331 -319 -323 -309 -94 -126 -140 -147 -163 -410 -405 -350 -318 -325 -304
0 0 -9 -5 -3 -2 -8 -9 -12 -17 -24 -40 -39 -39 -24 -13 -9 -30 -47 -58 -55 -66 -69 -133 -199 -243 -235 -213 -226 -243 -245 -253 -302 -330 -363 -259 -215 -225 -205 -188 -165 -284 -333 -341
0 0 0 -4 -4 -1 -11 -32 -23 -16 -31 -27 -26 -31 -27 -17 -9 -12 -42 -56 -78 -89 -68 -107 -169 -201 -215 -225 -342 -370 -396 -249 -268 -248 -251 -224 -235 -286 -343 -304 -251 -221 -185 -182
Wind_Speed
nan nan nan nan nan nan nan nan nan nan nan nan nan nan 15 10 8 4 4 nan nan nan nan nan nan nan nan 1 nan nan nan nan nan nan nan nan nan nan 12 11 10 10 12 14
nan nan nan nan nan nan nan nan nan nan nan nan nan nan 19 5 3 2 2 3 nan nan nan nan nan 1 9 nan nan nan nan nan nan nan nan nan nan 13 11 10 10 8 11 13
nan nan nan nan nan nan nan nan nan nan nan nan nan nan 29 12 20 18 14 nan nan nan nan nan nan nan nan nan nan nan nan nan nan nan nan nan nan 15 nan 12 10 9 9 11
nan nan nan nan nan nan nan nan nan nan nan nan nan nan nan 26 17 19 16 4 nan nan nan nan nan nan nan nan nan nan nan nan nan nan nan nan nan 13 12 nan 10 7 8 9
nan nan nan nan nan nan nan nan nan nan nan nan nan nan nan 29 26 20 10 7 11 nan nan nan nan nan nan nan nan nan nan nan nan nan nan nan nan 10 nan nan nan 8 8 7
nan nan nan nan nan nan nan nan nan nan nan nan nan nan nan nan 16 13 14 13 10 9 nan nan nan nan nan nan nan nan nan nan nan nan nan nan nan nan nan nan nan nan 9 6
nan nan nan nan nan nan nan nan nan nan nan nan nan nan nan nan 19 17 7 7 10 6 7 13 nan nan nan nan nan nan nan nan nan nan nan nan nan nan nan nan nan nan 10 7
nan nan nan nan nan nan nan nan nan nan nan nan nan nan nan nan nan 17 13 14 10 10 7 11 9 6 nan nan nan nan nan nan nan nan nan nan nan nan nan nan nan nan nan 6
nan nan nan nan nan nan nan nan nan nan nan nan nan nan nan nan nan nan 23 23 16 13 12 10 9 6 5 3 3 3 nan nan nan nan nan nan nan nan nan nan nan nan nan 7
nan nan nan nan nan nan nan nan nan nan nan nan nan nan nan nan nan nan nan nan 16 13 13 14 8 6 4 2 6 10 10 10 13 16 nan 17 14 12 nan nan nan nan 9 7
nan nan nan nan nan nan nan nan nan nan nan nan nan nan nan nan nan nan nan nan nan 17 14 10 9 8 3 7 8 11 11 11 17 20 21 18 16 14 13 13 nan nan 9 5
nan nan nan nan nan nan nan nan nan nan nan nan nan nan nan nan nan nan nan nan nan nan nan nan nan 6 6 7 10 9 13 11 11 15 19 17 18 16 14 15 13 11 7 8
nan nan nan nan nan nan nan nan nan nan nan nan nan nan nan nan nan nan nan nan nan nan nan nan nan nan 10 6 9 12 13 13 14 14 14 18 19 16 13 14 14 12 9 8
nan nan nan nan nan nan nan nan nan nan nan nan nan nan nan nan nan nan nan nan nan nan nan nan nan 15 13 8 8 15 16 17 18 17 16 16 15 14 14 15 14 11 7 6
nan nan nan nan nan nan nan nan nan nan nan nan nan nan nan nan nan nan nan nan nan nan nan nan nan 21 20 19 16 17 19 19 20 18 17 12 15 16 17 15 12 11 6 6
nan nan nan nan nan nan nan nan nan nan nan nan nan nan nan nan nan nan nan nan nan nan nan nan nan 17 17 17 20 17 20 20 20 18 16 17 18 19 16 15 12 10 8 9
nan nan nan nan nan nan nan nan nan nan nan nan nan nan nan nan 41 nan nan nan 50 nan nan nan nan 13 18 14 18 19 20 22 18 15 19 18 19 17 16 14 14 10 8 11
nan nan nan nan nan nan nan nan nan nan nan nan nan nan nan nan 39 42 50 nan 42 30 nan nan nan 22 15 16 14 28 16 20 19 17 18 18 17 17 18 16 13 13 11 9
nan nan nan nan nan nan nan nan nan nan nan nan nan 67 66 58 46 42 52 43 36 32 nan nan 36 30 24 20 18 24 17 17 20 16 16 17 17 17 18 14 14 16 14 11
nan nan nan nan nan nan nan nan nan nan nan nan nan 72 69 58 48 48 55 52 45 39 41 nan 40 31 25 22 23 20 19 15 11 10 16 20 18 16 15 17 17 18 17 14
nan nan nan nan nan nan nan nan nan nan nan nan nan 67 67 nan 54 54 60 58 49 45 46 45 32 29 27 28 27 24 19 10 8 12 18 22 18 17 21 24 23 21 20 19
nan nan nan nan nan nan nan nan nan nan nan nan 68 69 68 64 65 67 66 63 56 48 50 48 43 39 37 32 31 27 23 25 19 15 14 19 24 25 25 24 24 22 21 18
nan nan nan nan nan nan nan nan nan nan nan nan 66 71 72 71 68 70 68 67 62 58 55 54 47 45 47 44 38 38 32 28 22 17 11 15 22 29 28 29 31 28 26 23
nan nan nan nan nan 55 59 nan nan nan nan 60 65 69 74 75 73 71 69 67 65 64 57 51 49 47 51 48 45 38 33 30 26 24 21 24 20 24 36 34 28 36 37 32
nan nan nan nan nan nan nan nan nan nan 61 56 64 64 71 77 77 73 71 70 67 66 65 58 52 44 46 47 44 40 38 37 36 35 32 33 27 33 41 45 43 42 42 37
nan nan nan nan nan nan nan nan nan nan nan 57 57 65 67 74 76 75 73 69 67 61 63 62 57 47 42 44 50 50 50 48 44 42 38 35 37 41 46 47 52 62 60 58
Wind_Direction
nan nan nan nan nan nan nan nan nan nan nan nan nan nan 237 209 193 227 68 nan nan nan nan nan nan nan nan 57 nan nan nan nan nan nan nan nan nan nan 141 118 85 72 76 77
nan nan nan nan nan nan nan nan nan nan nan nan nan nan 221 277 98 307 312 81 nan nan nan nan nan 193 164 nan nan nan nan nan nan nan nan nan nan 154 154 124 109 82 61 68
nan nan nan nan nan nan nan nan nan nan nan nan nan nan 229 255 218 227 212 nan nan nan nan nan nan nan nan nan nan nan nan nan nan nan nan nan nan 172 nan 152 142 111 74 68
nan nan nan nan nan nan nan nan nan nan nan nan nan nan nan 242 242 250 230 225 nan nan nan nan nan nan nan nan nan nan nan nan nan nan nan nan nan 171 159 nan 146 129 92 77
nan nan nan nan nan nan nan nan nan nan nan nan nan nan nan 227 222 231 202 160 142 nan nan nan nan nan nan nan nan nan nan nan nan nan nan nan nan 180 nan nan nan 142 123 95
nan nan nan nan nan nan nan nan nan nan nan nan nan nan nan nan 216 179 161 140 137 108 nan nan nan nan nan nan nan nan nan nan nan nan nan nan nan nan nan nan nan nan 144 129
nan nan nan nan nan nan nan nan nan nan nan nan nan nan nan nan 174 174 153 131 101 109 98 72 nan nan nan nan nan nan nan nan nan nan nan nan nan nan nan nan nan nan 165 163
nan nan nan nan nan nan nan nan nan nan nan nan nan nan nan nan nan 171 172 126 166 155 115 88 72 42 nan nan nan nan nan nan nan nan nan nan nan nan nan nan nan nan nan 163
nan nan nan nan nan nan nan nan nan nan nan nan nan nan nan nan nan nan 160 182 201 176 131 103 66 60 82 94 101 199 nan nan nan nan nan nan nan nan nan nan nan nan nan 197
nan nan nan nan nan nan nan nan nan nan nan nan nan nan nan nan nan nan nan nan 206 174 171 149 115 58 107 146 197 195 198 214 217 224 nan 217 217 219 nan nan nan nan 202 212
nan nan nan nan nan nan nan nan nan nan nan nan nan nan nan nan nan nan nan nan nan 183 182 168 134 97 326 200 219 216 208 217 220 221 223 217 218 218 216 207 nan nan 222 236
nan nan nan nan nan nan nan nan nan nan nan nan nan nan nan nan nan nan nan nan nan nan nan nan nan 154 253 258 222 232 227 212 219 226 227 228 223 225 210 202 211 220 232 249
nan nan nan nan nan nan nan nan nan nan nan nan nan nan nan nan nan nan nan nan nan nan nan nan nan nan 203 243 245 228 232 224 218 220 228 227 227 225 207 203 207 220 233 251
nan nan nan nan nan nan nan nan nan nan nan nan nan nan nan nan nan nan nan nan nan nan nan nan nan 219 247 227 253 235 228 231 231 226 223 225 231 223 208 214 218 225 229 246
nan nan nan nan nan nan nan nan nan nan nan nan nan nan nan nan nan nan nan nan nan nan nan nan nan 206 242 242 238 233 228 230 233 233 230 218 222 219 219 218 228 238 233 238
nan nan nan nan nan nan nan nan nan nan nan nan nan nan nan nan nan nan nan nan nan nan nan nan nan 247 226 245 259 245 236 236 238 236 223 219 213 220 225 226 235 232 228 237
nan nan nan nan nan nan nan nan nan nan nan nan nan nan nan nan 195 nan nan nan 201 nan nan nan nan 228 227 248 264 247 242 233 230 223 212 211 214 220 227 225 222 216 220 240
nan nan nan nan nan nan nan nan nan nan nan nan nan nan nan nan 192 191 197 nan 198 175 nan nan nan 205 207 229 250 246 233 236 226 219 211 208 211 218 225 215 206 205 212 226
nan nan nan nan nan nan nan nan nan nan nan nan nan 183 179 178 183 189 195 191 182 187 nan nan 203 194 211 233 231 249 241 242 228 226 221 220 224 221 216 207 202 205 206 212
nan nan nan nan nan nan nan nan nan nan nan nan nan 186 185 188 194 188 183 176 185 197 183 nan 203 195 208 223 238 244 262 262 236 228 225 219 217 216 210 204 203 211 211 212
nan nan nan nan nan nan nan nan nan nan nan nan nan 186 194 nan 191 179 181 181 182 198 190 184 197 206 209 230 232 250 241 266 216 231 231 219 204 205 209 210 213 216 217 217
nan nan nan nan nan nan nan nan nan nan nan nan 193 187 191 199 196 188 187 188 180 195 198 200 205 212 212 218 237 227 228 220 208 222 229 235 208 205 215 222 221 224 228 232
nan nan nan nan nan nan nan nan nan nan nan nan 197 189 192 199 199 195 189 189 185 187 196 202 205 210 212 217 225 226 216 216 221 223 229 253 243 213 219 233 222 226 237 224
nan nan nan nan nan 196 205 nan nan nan nan 199 200 197 195 200 203 200 194 190 190 191 198 200 205 209 206 213 221 227 227 221 224 224 244 242 254 243 227 230 235 237 233 235
nan nan nan nan nan nan nan nan nan nan 203 199 201 201 200 199 206 205 202 199 198 198 201 205 209 209 200 201 214 219 224 231 235 239 240 239 236 231 237 235 233 237 249 248
nan nan nan nan nan nan nan nan nan nan nan 198 205 201 205 204 204 207 206 207 207 205 203 206 210 208 205 202 203 207 209 216 224 230 229 226 230 233 236 237 237 234 235 245